Wind_Gust
6 6 7 7 10 11 10 8 8 7 7 6 8 8 6 5 5 3 7 7 5 4 5 5 5 4 2 2 2 3 2 1 2 3 2 2 1 1 1 1 2 1 4 2 2 5 7 7 7 6 6 10 8 9 10 9 9 10 8 11 11 7 9 10 10 7 4 3 5 7 8 6 13 11 12 12 13 13 10 10 12 13 13 13 13
5 6 5 8 7 9 8 5 6 6 8 7 7 7 4 4 3 4 9 6 6 3 4 6 6 6 6 7 5 3 4 7 9 8 5 3 3 1 4 3 2 2 2 4 3 3 6 7 6 6 6 10 8 9 9 8 9 10 9 10 10 8 4 9 7 7 4 4 7 6 8 6 11 10 10 11 10 10 13 12 12 13 13 12 13
6 6 6 6 6 5 6 6 7 7 7 7 6 7 7 7 6 7 6 7 6 8 9 11 9 6 6 7 7 7 11 13 11 9 9 9 8 6 5 5 5 5 4 5 5 3 4 5 6 6 6 9 8 8 8 9 8 11 9 7 10 8 7 7 9 8 7 5 5 6 9 8 9 11 10 7 6 7 10 10 11 12 12 11 12
6 6 7 7 6 9 8 8 10 9 9 9 10 9 11 10 8 8 8 7 7 8 8 9 7 5 3 2 4 5 9 12 12 10 9 7 10 9 6 6 7 7 7 7 7 7 6 5 5 6 6 9 8 9 8 8 10 10 9 7 8 9 7 8 8 8 5 7 5 8 7 7 6 6 8 6 7 7 9 7 6 9 9 10 11
7 6 8 10 7 11 7 8 9 8 10 10 10 10 9 9 8 10 9 8 6 5 7 8 8 5 4 3 4 6 5 7 8 11 7 9 10 10 9 8 9 9 9 8 7 8 8 9 8 8 7 8 7 8 9 9 9 10 10 8 8 7 6 8 9 9 10 8 5 5 5 5 5 5 8 11 8 7 7 8 5 8 8 8 8
7 8 8 11 9 10 9 8 10 11 12 11 10 9 9 8 8 7 10 12 8 5 5 10 8 10 8 7 6 5 5 6 8 9 10 10 10 10 11 9 9 9 9 9 9 10 10 11 9 9 10 10 10 9 9 10 9 10 11 9 9 8 8 7 9 10 10 8 6 5 5 7 7 6 7 9 10 12 12 8 4 6 10 11 9
7 8 7 9 9 8 8 7 9 11 12 12 10 9 8 7 7 8 8 11 13 15 9 7 5 7 11 9 10 9 9 9 7 7 8 11 14 12 11 10 9 9 9 9 9 9 10 10 9 10 11 11 12 13 12 11 11 11 13 13 11 10 8 9 10 10 9 9 5 5 4 4 6 8 8 8 8 10 14 17 15 6 8 13 16
6 7 7 7 7 6 5 7 6 8 10 13 11 9 7 7 6 7 8 7 5 8 9 10 12 9 10 8 5 4 4 7 7 8 11 12 13 12 11 9 10 9 8 9 9 10 10 9 10 11 12 12 12 12 12 13 8 8 5 8 10 9 8 8 8 8 9 7 5 4 4 4 7 5 7 5 6 6 11 10 14 21 21 14 8
7 7 6 7 5 5 5 4 6 7 10 8 6 6 8 6 8 9 11 7 8 9 9 7 8 8 7 7 6 5 6 8 8 8 9 10 9 11 10 11 11 9 9 9 8 9 9 10 11 11 12 11 12 12 12 11 13 11 9 9 9 9 8 8 8 7 6 6 5 4 5 6 6 7 10 9 11 9 9 8 8 8 12 17 14
9 7 7 7 7 5 6 7 8 8 9 9 9 8 6 3 4 5 5 4 5 5 3 4 4 6 7 6 5 5 7 7 8 10 9 10 9 9 9 10 8 8 8 9 9 10 11 10 11 13 14 15 13 13 13 13 11 13 15 13 11 9 8 9 8 7 6 4 3 3 7 8 6 5 5 5 5 5 6 7 11 11 10 11 9
6 7 6 5 6 6 6 5 7 8 9 10 9 8 5 4 3 1 2 1 1 1 2 4 5 5 6 5 5 5 7 8 9 10 10 9 7 8 8 8 7 8 8 10 11 11 10 10 10 10 12 12 15 12 8 10 12 11 12 10 8 12 10 8 7 8 7 5 5 5 4 8 7 4 4 6 5 7 7 7 7 9 12 15 23
8 7 5 6 7 9 7 6 4 4 7 8 8 7 6 6 5 5 5 4 3 4 5 6 5 5 5 4 5 7 7 6 8 9 9 8 5 8 7 8 8 8 9 9 10 10 10 9 8 8 10 11 9 10 10 10 11 12 11 9 10 9 5 8 9 6 6 6 5 5 4 6 6 4 4 4 6 6 5 6 7 8 12 14 13
7 7 5 6 6 6 7 9 8 8 6 6 6 6 7 6 5 5 7 6 6 6 6 4 5 5 6 6 8 8 6 6 8 8 9 9 6 6 8 8 8 10 9 8 8 9 9 8 9 8 9 8 9 9 10 10 8 12 13 14 12 11 10 11 6 7 10 8 7 6 7 6 5 5 5 5 5 7 7 8 8 8 8 11 13
8 6 6 6 5 5 7 9 9 7 6 7 7 10 10 9 7 6 7 7 7 6 6 6 6 6 7 7 7 5 4 6 7 7 8 8 7 5 7 8 8 8 7 6 7 8 8 9 9 9 6 5 8 10 11 12 12 11 10 9 9 9 9 9 9 8 7 8 9 6 6 7 6 6 6 6 5 8 8 10 8 10 10 13 11
9 6 8 6 5 6 7 8 7 6 7 8 9 8 6 6 7 5 6 7 9 10 9 8 5 4 3 2 5 6 5 6 7 8 8 8 7 4 6 6 5 5 5 5 7 8 8 8 7 7 5 6 7 10 12 12 13 11 11 9 9 8 8 7 7 7 7 7 7 8 8 7 6 6 6 6 7 8 7 10 11 11 12 11 11
8 7 8 7 7 6 9 9 8 6 7 8 8 7 6 5 5 4 6 6 6 7 6 8 7 5 6 6 5 4 7 9 11 10 9 8 3 5 5 4 3 5 7 8 7 7 7 5 5 5 5 6 5 8 9 12 13 13 12 10 9 8 8 5 5 6 8 9 9 9 9 8 5 6 6 6 7 7 7 7 7 8 8 10 13
12 8 7 5 6 7 8 10 8 7 7 9 8 8 9 6 4 3 7 4 5 6 6 7 5 3 3 4 5 3 2 5 8 9 8 3 4 6 6 8 8 9 9 9 9 9 8 7 8 9 9 8 6 10 11 11 12 12 12 10 8 8 7 5 7 8 7 7 6 5 3 2 2 3 5 7 7 6 6 6 10 6 8 14 13
10 8 8 6 2 3 4 8 9 9 9 10 9 8 8 7 6 5 10 7 5 4 6 7 6 5 3 3 1 2 3 5 6 5 2 1 4 7 7 9 9 9 9 10 9 10 12 14 11 10 11 9 8 11 10 11 11 9 10 10 8 7 5 4 5 6 5 4 5 2 2 2 2 4 6 6 6 5 9 10 8 5 11 10 18
7 6 7 8 6 6 5 6 7 8 10 8 10 9 8 9 8 6 8 9 8 7 5 7 4 4 3 2 4 2 3 5 6 3 4 5 7 7 9 9 9 8 8 10 9 10 11 12 12 11 11 10 12 11 11 10 10 8 8 8 6 5 4 5 6 5 6 6 6 6 5 4 4 6 7 7 8 7 10 11 7 8 12 12 13
8 7 7 6 5 3 3 5 7 8 7 6 5 8 8 9 9 9 7 8 9 6 3 4 5 2 4 4 5 4 3 5 5 4 5 7 8 10 7 10 9 8 7 8 11 10 11 11 11 12 13 13 13 13 13 11 10 7 7 7 5 4 4 5 5 5 5 4 5 4 6 7 8 7 7 8 8 7 7 8 9 9 11 12 12
9 8 7 3 4 6 5 7 8 5 6 7 6 5 5 8 7 8 10 8 9 7 6 5 6 3 4 4 5 5 3 4 6 4 6 8 10 10 8 9 10 10 10 10 9 10 10 10 8 9 12 13 14 14 13 12 8 9 8 7 5 5 4 5 6 4 5 5 5 7 8 8 8 8 8 9 9 9 9 9 9 10 11 12 13
8 5 5 6 7 7 8 8 8 10 7 7 7 6 3 4 9 9 10 10 9 7 5 5 6 3 4 4 4 5 6 5 4 4 5 8 9 11 11 9 11 13 10 9 10 10 9 9 8 7 10 11 11 10 11 10 10 9 9 5 5 5 6 5 4 5 5 5 6 7 8 8 9 9 9 9 10 10 10 10 10 10 11 13 15
7 8 8 9 9 9 9 8 9 7 8 8 10 9 7 7 6 8 10 8 9 7 5 5 5 3 1 2 4 4 5 4 6 4 4 7 9 10 11 11 8 10 14 11 9 10 7 8 7 8 10 11 11 11 10 10 8 8 8 8 8 6 5 6 5 5 6 6 6 7 8 8 9 10 10 11 11 10 11 11 12 12 12 13 14
7 8 10 11 11 11 10 9 5 5 8 10 8 11 8 6 7 8 9 11 10 8 6 6 5 5 6 3 2 3 4 5 6 7 6 6 9 11 11 10 9 9 12 13 10 9 9 7 7 9 11 13 13 13 13 11 13 12 12 11 8 6 7 7 8 7 7 8 8 9 9 9 9 10 11 11 12 12 13 12 13 12 14 14 14
5 9 10 11 12 10 7 7 6 6 5 7 8 8 6 7 8 3 8 8 8 10 9 7 9 9 7 7 4 2 5 5 5 7 9 8 10 12 13 14 14 14 15 9 9 9 8 10 12 14 14 13 13 12 11 12 13 11 11 10 9 9 9 9 8 8 9 9 9 9 10 10 11 12 11 12 12 12 14 12 11 14 16 17 17
7 7 7 6 6 6 8 6 6 6 7 8 8 10 12 10 8 9 7 8 9 9 9 8 8 6 8 7 6 5 3 5 6 5 6 8 9 11 13 13 13 14 13 13 11 13 13 15 15 14 12 11 13 11 10 10 10 11 11 10 9 10 9 9 9 9 10 10 11 12 13 12 12 12 11 11 14 18 18 20 19 19 18 19 21
10 10 8 6 2 3 6 7 5 3 2 2 2 3 4 9 8 9 10 9 9 7 7 9 8 8 9 9 7 6 6 6 6 6 8 10 11 11 14 15 13 13 13 12 10 12 13 12 13 12 12 13 12 8 8 8 11 11 10 9 8 8 8 8 9 10 11 14 15 17 16 15 12 12 17 19 19 18 16 18 19 19 19 18 20
9 10 10 7 7 7 7 5 6 7 3 2 4 2 2 2 6 10 12 12 10 9 9 9 11 12 12 9 8 7 7 8 9 11 10 11 9 8 9 11 11 12 13 11 11 11 13 9 11 10 11 12 11 11 10 9 8 9 9 8 8 7 7 6 6 6 8 10 16 16 17 16 17 18 18 18 18 18 17 19 20 21 19 20 22
10 9 8 6 9 6 6 6 7 7 6 4 5 4 5 7 9 8 6 6 9 11 13 12 12 12 11 13 12 10 6 11 15 9 14 11 17 16 12 11 11 11 11 13 14 10 11 12 10 11 11 9 9 9 9 10 8 7 8 9 8 8 8 7 9 12 15 16 16 16 17 17 18 18 18 18 19 20 17 16 16 18 21 19 21
11 13 10 8 8 5 5 4 4 3 3 3 3 4 2 4 5 6 8 3 4 6 5 13 12 12 12 13 15 17 20 19 13 15 12 10 10 11 11 11 11 14 12 12 12 13 10 11 9 9 9 9 9 7 6 6 6 8 8 7 8 8 8 8 9 10 11 13 16 17 17 17 18 18 19 19 20 20 18 13 20 18 19 18 19
12 13 9 9 10 9 7 5 4 3 3 3 4 7 9 6 2 4 7 10 9 10 10 12 9 9 14 13 11 4 4 12 18 15 13 13 14 15 16 16 17 17 15 15 12 10 10 11 8 8 6 6 5 3 3 5 6 6 7 7 7 8 7 8 9 9 11 13 14 14 15 17 18 18 18 19 20 21 20 17 18 17 18 19 20
13 13 11 6 2 2 2 2 2 3 4 3 5 6 6 9 10 4 4 6 9 10 13 14 14 12 14 11 10 4 11 16 17 17 16 16 16 16 16 16 15 13 11 15 14 9 10 11 8 6 5 5 3 3 3 4 6 6 7 7 9 7 7 9 12 13 14 15 16 17 18 19 20 20 20 20 19 19 20 20 19 18 19 19 21
10 9 4 3 2 4 3 4 4 3 6 5 6 5 7 8 11 12 7 5 4 5 8 11 12 13 14 14 17 14 14 15 18 18 18 18 18 16 16 14 14 13 13 12 13 10 8 9 8 4 3 3 2 3 5 7 6 8 7 8 10 11 9 9 8 12 14 15 17 19 18 19 19 19 17 18 19 20 20 21 20 19 20 21 21
5 4 2 3 3 4 5 6 6 7 6 6 7 7 8 8 10 9 9 9 7 6 9 8 6 11 12 14 14 16 20 21 21 21 20 20 19 18 15 13 11 8 11 14 12 11 8 8 6 6 4 1 2 3 5 6 6 7 8 9 9 11 12 10 12 13 16 16 16 17 16 17 16 17 18 17 18 18 20 19 19 20 19 19 20
2 2 3 3 5 6 5 5 5 6 6 8 9 10 10 10 10 11 12 11 10 5 3 8 7 7 12 11 16 19 20 22 23 22 21 20 19 19 17 16 13 11 12 10 11 11 10 8 6 4 4 2 3 2 5 7 8 8 9 10 12 11 12 13 14 14 17 17 17 17 15 15 16 15 16 17 18 18 18 18 18 18 18 19 18
4 3 2 1 2 2 3 3 4 6 8 9 10 11 10 10 11 11 10 9 8 9 6 5 6 7 13 12 16 19 20 19 18 18 18 19 19 16 15 11 11 10 10 7 10 9 9 8 7 4 3 4 4 5 5 6 7 9 10 9 12 13 13 14 16 17 16 17 17 17 15 17 16 16 15 16 16 18 18 18 19 18 18 19 18
6 5 3 2 3 3 2 2 4 7 6 9 9 10 10 10 10 9 9 9 9 7 12 12 14 15 13 12 13 16 19 20 18 16 14 12 8 8 12 12 12 11 10 10 9 9 7 5 5 4 4 4 5 6 5 7 8 9 9 11 11 13 13 14 17 15 17 18 19 17 15 16 17 15 15 16 17 17 17 17 17 17 17 18 16
6 7 6 6 4 4 3 3 4 4 4 7 8 9 9 9 9 10 10 11 11 12 12 11 9 20 19 14 8 12 19 16 18 13 9 8 9 10 10 11 11 12 11 8 8 7 6 3 4 2 3 6 6 7 8 8 8 9 11 11 11 11 13 16 13 13 13 16 18 19 17 16 16 16 16 16 17 17 18 17 17 17 17 17 16
6 5 6 6 5 6 3 2 3 3 2 3 6 7 8 8 9 10 10 11 11 9 8 10 11 14 15 14 15 15 18 14 12 11 9 8 8 9 11 11 11 10 9 8 7 8 6 5 4 2 3 4 5 7 7 8 9 10 11 14 15 13 13 13 14 13 13 14 16 16 16 16 17 17 16 18 18 16 17 17 17 16 16 17 17
7 6 7 6 2 2 2 2 3 1 3 4 4 4 7 8 10 11 12 12 12 11 10 12 12 12 10 13 13 12 15 12 11 10 10 9 9 8 11 11 10 11 9 7 6 6 6 3 3 3 4 5 6 7 6 8 8 9 12 13 13 14 14 13 13 14 14 15 16 16 17 17 17 17 16 16 17 17 17 18 17 16 17 16 16
6 6 4 3 2 3 6 5 3 3 4 6 7 8 8 9 10 10 11 12 12 13 12 12 12 8 5 8 7 10 15 13 11 9 9 11 10 10 10 9 10 8 7 6 5 3 4 5 3 2 4 5 6 5 7 8 8 9 13 13 12 12 14 13 12 13 15 16 16 17 17 17 18 18 18 18 14 16 16 16 16 15 15 15 15
7 6 4 3 4 5 5 5 4 5 6 6 9 9 9 10 10 11 12 11 11 13 14 12 8 5 6 11 12 14 15 11 11 12 10 10 10 9 8 7 6 7 8 6 5 5 4 3 2 3 5 6 6 6 8 7 8 10 11 12 12 13 13 14 14 14 15 16 16 17 17 18 19 20 19 12 17 16 17 16 16 17 16 15 14
6 6 6 5 2 1 2 2 4 7 7 8 8 6 9 10 11 11 11 11 12 12 13 11 8 8 10 8 13 12 13 12 8 12 10 10 9 8 8 7 7 6 5 3 2 4 5 4 3 3 4 4 3 4 5 7 8 11 11 11 13 13 14 14 14 15 14 16 17 18 18 18 19 18 18 17 16 17 17 18 17 15 15 14 13
7 6 6 6 5 6 4 4 7 7 8 7 8 9 10 10 10 10 11 10 10 10 11 10 10 11 10 10 11 13 12 11 11 10 11 10 10 9 8 7 7 6 6 4 2 4 4 6 5 5 4 4 5 5 5 5 7 9 11 12 12 13 14 15 15 16 17 17 18 18 18 18 18 18 18 17 18 17 17 17 17 17 17 15 13
8 8 7 7 7 7 8 7 7 7 7 8 9 9 8 9 9 9 10 11 11 11 11 10 9 10 11 9 10 12 11 11 11 11 11 10 10 8 7 7 7 7 5 5 3 3 5 7 7 7 6 8 10 10 10 10 10 9 9 11 11 13 14 15 16 17 18 17 17 18 18 19 18 18 19 19 17 16 17 16 17 14 16 15 14
8 8 7 7 7 7 8 9 8 9 8 9 10 10 9 9 9 10 11 11 11 12 11 10 10 10 10 11 11 12 11 12 11 11 11 9 9 8 6 7 6 5 7 5 6 7 9 8 9 7 8 9 11 11 12 10 11 10 9 9 11 12 14 15 17 18 18 16 17 17 19 18 17 17 17 19 17 16 15 16 15 15 14 13 13
10 8 8 8 9 9 8 8 9 9 10 10 10 10 10 11 11 11 11 12 12 11 11 11 11 11 11 10 11 10 11 12 11 11 10 9 8 7 7 6 6 8 8 8 7 9 9 10 8 9 9 10 10 11 11 11 11 11 11 11 12 14 14 17 18 17 17 17 17 17 17 16 17 17 18 18 17 16 16 16 15 14 15 13 12
9 9 9 8 8 9 9 9 11 9 11 11 11 11 11 11 12 11 11 12 14 13 13 12 12 12 12 12 12 11 11 11 10 11 9 9 8 7 7 7 8 7 8 10 9 10 11 11 10 9 10 10 11 11 12 13 13 13 13 14 13 16 21 19 19 17 16 18 17 16 16 15 15 16 17 17 16 16 16 16 16 15 14 13 11
10 10 10 10 10 10 9 10 9 10 10 11 12 12 11 12 11 11 11 12 14 13 13 13 13 13 13 13 12 12 10 11 10 9 8 8 8 7 8 8 8 9 10 10 10 10 11 10 10 10 10 10 10 12 13 14 15 15 15 15 17 21 21 20 17 18 20 20 15 14 14 14 15 15 16 15 16 16 15 14 14 14 14 12 11
11 10 11 11 11 10 10 10 10 10 10 10 12 12 11 11 11 11 12 13 14 14 13 13 13 13 13 12 12 11 10 10 9 8 7 8 8 8 9 10 10 10 10 10 10 9 9 9 9 9 10 10 11 11 12 14 15 16 16 20 21 23 23 25 20 18 21 18 17 14 13 14 14 14 14 15 14 15 15 15 15 14 14 14 12
11 12 12 11 10 9 10 11 11 11 11 11 11 11 12 12 12 12 12 13 13 12 12 12 12 12 12 11 11 10 9 8 8 9 9 9 9 9 8 9 10 9 9 9 9 10 10 9 9 10 10 11 11 12 13 15 16 19 19 20 22 23 23 22 23 21 24 18 17 13 12 13 13 15 15 15 15 15 15 15 14 14 14 13 12
Wind_Speed
4 4 4 5 6 7 6 4 3 4 5 4 5 5 3 3 2 1 5 5 3 1 0 1 1 1 1 1 1 1 0 0 1 2 1 1 0 0 0 1 1 1 1 1 1 3 4 5 5 4 4 6 5 5 6 5 5 6 5 6 6 4 5 5 5 4 1 0 1 3 4 3 6 6 6 6 7 6 7 6 7 7 7 6 6
3 4 4 3 5 4 4 4 3 4 6 5 4 3 2 2 2 2 6 4 4 2 3 5 5 5 3 4 3 2 4 6 7 6 3 2 2 1 3 3 2 2 1 2 1 1 2 4 4 4 3 6 5 5 5 5 5 6 4 5 5 4 1 4 3 3 2 1 3 3 3 3 5 5 5 6 6 6 7 6 6 7 6 6 6
3 3 3 3 4 4 5 4 5 5 5 4 4 5 5 5 4 3 3 5 4 5 4 2 1 1 2 1 1 5 5 5 2 2 4 6 6 4 3 4 4 4 4 4 3 0 2 3 4 4 3 6 5 5 5 6 4 6 5 4 6 4 3 4 4 4 5 2 1 2 3 3 4 5 5 3 3 3 5 5 5 5 5 6 5
4 4 4 4 4 5 5 5 6 6 6 6 7 6 7 6 6 5 4 4 5 4 5 5 2 1 1 0 3 4 3 5 6 5 2 1 5 6 4 4 5 5 5 5 4 4 4 4 4 3 3 6 5 5 4 5 6 6 6 4 5 5 4 5 5 4 2 4 2 2 1 3 2 3 3 2 3 3 4 2 2 4 4 4 5
5 4 5 6 5 6 5 5 6 6 7 6 6 5 5 6 5 5 5 3 3 3 1 2 3 3 2 1 2 4 4 1 2 1 2 5 5 5 6 5 6 6 6 5 4 5 5 6 5 4 4 5 4 5 4 6 5 6 6 4 4 4 3 4 5 4 5 5 1 1 1 0 0 1 3 4 3 2 3 3 1 4 4 3 3
4 5 5 7 6 6 6 6 7 7 8 7 7 6 6 6 5 4 5 5 5 4 3 2 4 6 5 5 4 4 4 4 4 4 4 3 4 5 6 6 6 6 6 6 6 6 7 7 6 6 6 6 6 5 5 7 5 6 7 5 4 4 4 4 5 5 6 4 3 2 0 2 2 1 2 3 3 4 4 3 0 2 4 4 3
5 5 4 6 6 6 5 5 6 7 8 8 6 6 6 6 5 5 4 6 4 2 3 4 1 4 7 6 6 6 6 4 4 4 4 5 6 4 5 6 6 5 6 6 6 6 6 6 6 7 7 7 7 8 7 7 6 7 6 7 5 6 5 4 5 6 5 4 1 1 1 1 2 2 2 3 2 4 6 5 2 1 2 6 6
4 4 4 4 4 5 4 5 4 6 7 5 4 4 4 5 4 4 3 3 4 6 5 4 5 5 6 4 3 3 3 3 4 5 5 5 6 6 5 6 7 6 6 6 6 6 7 6 7 7 8 8 8 7 8 7 5 5 3 4 5 6 3 2 4 4 3 3 2 2 1 1 2 1 2 1 1 1 4 4 7 9 8 4 3
5 5 4 5 3 3 3 3 4 5 6 5 3 3 5 4 5 5 5 4 3 3 3 4 4 4 3 3 4 4 4 5 5 5 5 6 5 6 6 7 7 6 6 5 5 5 6 6 7 7 8 8 10 10 10 8 7 6 5 6 5 5 4 4 4 3 2 2 2 1 1 2 1 3 4 3 5 3 3 3 2 3 5 7 6
6 5 5 4 3 3 4 5 5 5 6 6 6 5 4 2 3 4 4 3 3 3 2 2 3 3 4 4 4 4 5 4 6 9 7 5 5 5 5 6 6 5 5 5 6 6 7 7 7 9 11 12 11 11 11 12 9 7 8 7 7 6 4 4 4 3 3 2 0 0 3 3 2 2 1 1 1 1 2 3 4 5 4 5 3
4 5 4 4 4 3 3 3 4 5 4 4 2 3 2 1 1 1 1 1 1 0 1 2 2 2 4 4 3 3 4 4 4 5 6 6 5 5 5 5 5 5 5 6 7 7 6 6 6 7 8 9 10 7 5 8 10 10 11 9 7 7 6 4 3 3 3 2 2 2 1 3 2 0 1 1 1 2 2 2 3 3 5 6 9
5 4 3 3 3 3 3 2 2 3 5 5 5 4 3 3 2 2 2 1 0 1 1 3 3 2 2 2 3 4 4 3 6 5 5 3 3 4 4 5 5 5 5 6 6 6 6 5 5 5 6 7 6 6 8 8 8 9 10 8 9 8 4 4 4 2 2 3 2 2 1 2 2 1 0 0 1 1 1 2 2 3 5 5 4
5 5 4 4 4 3 3 4 3 3 2 3 4 4 4 3 2 2 2 2 3 2 2 1 2 1 2 3 4 4 4 6 7 7 7 5 2 4 4 5 5 6 6 5 5 6 5 5 5 5 5 7 6 5 6 6 6 10 11 11 10 9 9 8 4 4 5 4 4 3 4 2 1 1 1 1 1 3 3 3 3 3 3 4 6
5 4 4 3 3 3 5 6 6 4 4 4 4 5 5 5 4 3 4 4 4 3 2 1 1 1 1 2 3 2 1 4 5 5 5 6 5 4 4 4 4 5 5 4 4 5 5 5 5 5 4 4 4 6 7 8 7 7 6 5 5 6 7 8 8 6 4 4 5 4 3 4 2 2 2 3 0 3 3 4 3 5 5 6 6
6 4 5 3 3 4 5 5 5 4 5 5 5 5 4 4 4 3 4 4 6 6 6 5 3 3 1 1 1 3 2 4 6 6 5 4 4 2 2 2 2 2 2 3 4 5 5 5 5 5 3 3 4 7 8 8 8 6 6 5 4 4 4 4 3 4 4 3 3 4 4 3 2 2 2 2 2 3 3 5 5 5 5 5 5
5 5 5 4 4 4 5 5 4 4 5 5 6 5 4 4 4 3 4 4 4 5 4 5 5 4 3 3 3 3 4 8 9 9 8 6 3 2 1 1 0 2 4 4 4 3 3 2 2 2 2 3 3 7 7 7 8 7 6 5 4 4 4 3 4 4 4 4 4 4 3 3 2 1 1 2 2 2 2 2 3 3 3 4 5
8 6 4 3 4 4 5 6 5 5 5 6 5 4 4 3 3 2 5 3 3 4 4 4 3 3 3 3 4 2 1 4 7 8 7 3 3 3 3 4 4 5 5 5 5 5 4 4 4 5 5 4 4 8 9 9 8 7 6 5 3 4 3 2 5 7 6 6 5 5 3 2 1 2 3 4 4 2 2 2 4 2 3 6 5
4 4 4 3 2 2 3 5 6 6 6 6 6 5 5 4 4 3 6 4 3 3 3 4 4 3 2 2 0 1 0 2 4 4 2 1 3 4 4 5 5 5 5 6 5 6 7 11 7 6 7 5 6 9 8 8 7 6 6 6 5 4 3 1 2 3 4 4 5 2 1 1 1 3 4 5 5 4 4 4 3 1 4 4 7
3 4 3 5 3 4 3 4 4 5 6 6 6 6 6 6 5 4 5 5 4 3 3 4 3 3 2 1 2 1 2 3 5 3 3 5 5 4 5 5 5 4 5 6 6 6 6 8 9 8 7 7 10 9 9 7 7 5 5 5 4 3 2 2 3 3 2 2 1 3 0 1 1 2 3 4 5 5 5 5 3 3 5 5 6
5 5 4 4 4 2 2 3 5 5 5 4 3 5 5 5 6 6 4 4 5 4 2 3 4 1 2 3 3 3 3 3 4 4 3 6 7 5 4 5 5 5 5 5 6 6 6 5 7 10 11 11 11 12 11 10 6 4 4 4 3 3 2 2 2 2 2 1 1 1 2 2 3 2 2 3 3 3 3 3 4 4 5 5 5
4 4 4 3 3 4 3 5 5 3 4 5 4 3 3 5 5 5 6 5 6 5 4 4 4 3 3 3 3 3 2 3 4 5 3 6 9 8 5 5 6 6 6 6 5 5 4 5 4 7 11 11 11 11 11 10 7 6 5 4 2 2 2 2 2 3 2 1 2 2 3 3 3 3 3 3 3 4 4 4 4 4 5 5 6
6 4 4 4 4 5 5 5 5 6 4 4 5 4 2 3 5 6 6 7 6 5 3 3 4 2 2 3 3 3 4 4 3 4 2 6 7 9 6 6 7 8 6 4 4 5 5 4 4 5 9 9 9 9 9 9 9 5 5 5 5 4 3 2 1 2 1 2 2 2 3 3 3 3 4 4 4 4 4 5 5 5 5 6 7
5 5 5 6 6 6 6 5 6 4 5 5 6 6 4 5 4 5 6 5 6 5 4 4 3 2 1 1 2 2 3 3 3 2 3 1 4 6 9 8 7 6 8 7 5 5 3 4 4 6 9 9 9 10 9 9 7 5 7 7 7 6 4 2 2 2 2 2 2 3 3 3 3 4 4 5 4 5 5 5 6 6 6 6 7
4 5 6 7 7 7 6 6 4 3 5 6 5 7 6 4 5 5 6 7 6 5 4 4 3 3 4 3 0 2 3 3 3 5 4 5 4 7 9 9 8 5 6 7 6 5 5 4 4 8 10 11 11 11 11 9 8 10 10 9 7 5 3 3 3 3 3 3 3 3 4 3 4 4 5 5 5 6 6 6 7 7 7 7 8
3 4 6 7 8 7 5 4 4 4 3 5 5 5 4 5 5 2 5 5 5 6 6 5 5 5 4 4 3 1 2 3 3 5 7 7 8 8 10 12 11 12 8 5 6 5 6 8 10 11 11 11 11 10 9 10 11 10 9 8 6 4 4 4 3 3 4 4 4 4 4 4 5 5 5 6 6 6 6 6 6 7 9 9 9
5 5 4 4 4 3 5 4 4 5 5 5 5 7 8 7 6 6 5 6 6 6 6 5 5 4 5 4 4 3 2 3 3 4 4 6 6 9 10 11 11 12 10 8 9 11 11 12 13 11 10 8 8 7 6 6 8 9 9 7 5 4 4 4 4 4 4 5 5 6 6 5 5 5 5 5 7 9 9 9 9 9 8 9 10
6 6 6 4 2 3 4 5 3 2 2 2 2 3 3 6 6 6 6 6 6 5 5 5 5 5 6 6 4 4 4 4 4 4 5 6 6 7 8 8 11 11 9 7 7 7 8 7 7 9 8 10 9 6 5 5 7 6 5 4 4 3 3 3 4 4 6 7 7 8 8 8 6 6 8 9 9 8 8 9 9 9 9 9 9
6 6 7 5 4 4 5 5 5 4 2 2 3 1 0 2 5 7 7 7 6 6 6 6 7 7 7 5 5 5 5 5 5 6 6 6 6 5 5 6 7 7 8 7 7 6 7 5 7 5 6 7 6 6 5 4 3 3 4 3 3 3 3 3 3 2 3 5 7 8 8 8 8 8 8 8 8 9 8 9 10 10 9 10 10
7 6 6 4 6 4 4 4 5 5 4 3 2 3 3 4 5 5 4 4 5 6 7 7 7 7 6 6 7 6 4 6 8 7 8 9 10 9 7 7 7 6 8 10 8 6 6 7 5 6 5 5 4 4 4 5 4 3 4 4 3 3 3 3 4 5 7 8 7 8 8 8 8 8 9 9 9 10 9 8 8 9 10 9 10
8 8 7 6 6 5 4 3 3 3 2 2 2 2 1 3 3 4 5 1 3 4 5 7 7 6 6 7 8 8 10 9 9 12 10 9 8 10 10 9 10 9 10 10 8 7 5 5 4 4 4 4 4 3 3 3 3 3 3 3 3 3 3 3 3 4 4 6 7 8 8 8 8 9 9 9 10 10 9 8 9 9 9 9 9
7 8 6 6 6 6 3 2 1 0 1 1 1 4 5 3 2 4 5 7 6 7 7 10 8 8 8 7 7 4 3 9 15 13 11 10 12 12 13 13 14 14 13 9 6 5 5 5 4 4 3 2 3 1 1 2 3 2 3 3 3 3 3 4 4 4 5 7 7 7 8 8 9 9 9 9 10 10 10 8 9 9 9 9 10
7 8 7 4 1 0 1 1 1 1 2 2 3 4 4 5 6 3 3 4 7 7 9 10 11 10 12 9 6 3 7 13 14 14 13 13 13 13 13 13 13 11 9 12 7 5 5 5 4 3 3 3 1 1 1 2 2 2 3 3 4 3 3 4 5 6 6 7 8 9 9 9 9 9 10 10 10 9 9 10 9 9 9 9 10
6 6 4 2 1 2 1 2 3 3 4 4 4 3 4 5 6 7 4 4 3 4 6 8 10 11 12 11 13 10 10 13 15 15 15 15 14 13 13 12 11 11 11 7 7 5 4 4 4 2 1 1 0 1 2 3 2 3 3 3 4 4 4 4 4 5 6 7 8 9 9 9 9 9 9 9 9 10 10 10 10 9 9 10 10
4 3 2 1 1 2 2 2 3 3 3 4 4 4 4 5 5 5 6 6 4 3 6 7 4 10 10 12 12 11 15 17 17 17 16 16 16 15 12 8 9 7 8 8 6 6 4 4 2 3 1 0 0 1 2 2 2 3 3 4 4 5 6 5 5 5 7 7 8 8 8 8 8 8 8 8 9 9 9 9 9 9 9 9 10
2 2 2 2 2 3 3 3 3 3 3 4 4 5 5 5 6 6 6 6 6 2 1 5 4 3 6 7 11 15 16 17 18 17 17 16 16 15 13 9 6 5 6 5 6 6 5 4 3 1 1 0 1 1 2 3 3 3 3 4 5 5 5 6 6 7 8 8 8 9 8 8 8 7 8 8 8 9 9 9 8 8 9 9 9
3 2 1 1 1 2 2 2 2 3 4 5 5 6 6 6 6 6 6 5 4 4 3 3 2 4 8 8 12 14 16 15 15 15 14 15 15 14 8 5 5 4 5 4 5 5 5 4 3 2 1 1 1 1 2 2 3 3 3 4 5 5 5 6 7 8 8 8 8 9 8 7 6 7 7 8 9 9 8 9 9 9 9 9 9
3 3 2 2 2 2 1 2 3 4 4 5 5 6 6 6 6 5 5 5 5 4 4 5 6 7 8 7 9 13 15 16 15 13 12 10 7 5 6 6 6 6 6 4 5 5 3 2 2 1 1 1 1 2 2 2 3 4 4 4 5 6 5 6 7 7 8 9 9 9 9 8 7 7 7 8 8 8 8 9 9 8 8 10 10
4 4 4 4 3 2 2 2 3 3 3 4 5 5 5 5 5 5 5 5 6 6 5 5 4 9 9 7 6 7 11 13 14 10 7 6 5 5 5 5 6 6 5 3 3 3 3 1 1 0 0 2 2 2 2 2 3 4 4 5 5 5 8 8 7 7 6 8 9 9 9 8 7 8 8 8 9 8 8 8 8 9 9 10 8
4 5 6 6 4 4 2 2 2 2 2 2 3 4 5 4 5 5 5 5 5 5 4 5 5 6 7 7 7 9 11 7 6 5 4 4 4 4 5 5 5 5 4 4 3 4 2 2 1 0 1 1 1 1 2 2 3 3 5 6 6 6 6 6 7 6 6 7 7 8 8 8 8 8 7 9 9 8 9 9 9 8 8 9 8
5 4 5 5 2 0 0 1 2 1 1 2 1 3 4 5 5 5 6 6 6 6 5 5 6 6 5 7 7 6 8 6 6 5 5 5 5 3 5 6 5 5 5 3 3 2 3 1 1 1 1 1 1 2 2 2 2 3 5 5 6 6 6 6 6 6 6 7 7 8 8 8 8 8 8 8 9 9 9 9 9 9 8 8 8
4 4 3 2 1 2 4 3 2 1 1 2 3 4 4 5 4 5 6 7 7 7 6 7 6 5 3 5 6 6 8 7 6 5 5 6 5 5 5 4 5 4 3 3 3 1 1 1 1 0 1 1 2 2 2 2 3 3 5 5 5 6 6 6 6 6 7 7 8 8 8 9 9 9 9 9 9 9 8 7 8 7 7 7 7
4 4 3 2 3 3 3 3 2 2 3 3 5 5 5 5 6 6 6 6 6 7 7 6 5 3 4 9 10 12 9 5 5 6 6 6 5 5 4 3 3 3 3 3 2 3 2 1 1 0 1 2 2 2 2 3 3 5 5 6 5 6 6 6 7 7 7 7 8 8 8 9 10 10 9 9 8 8 8 8 8 8 8 7 7
4 4 3 3 1 0 1 1 2 4 4 4 4 4 5 6 6 6 6 6 6 7 7 5 3 4 6 7 9 10 7 5 6 6 6 5 5 4 4 4 3 3 2 1 1 1 1 1 1 1 1 2 1 1 2 3 4 5 5 5 5 5 6 6 7 7 7 8 8 9 10 9 9 9 9 9 9 8 9 10 9 8 8 7 7
4 3 3 3 3 3 2 2 4 4 4 5 5 5 5 5 5 6 6 6 5 5 5 5 5 5 4 5 7 7 5 5 5 5 6 5 5 4 3 3 3 4 3 2 1 1 1 2 2 1 1 1 1 2 2 2 3 4 5 5 5 6 6 7 7 8 8 8 9 9 9 9 9 9 9 9 9 9 9 9 9 9 8 7 6
4 4 4 4 4 4 4 4 4 4 4 4 5 5 4 5 5 5 5 6 6 6 5 5 5 5 5 5 5 5 6 5 5 6 5 5 5 4 3 4 4 4 2 2 1 1 3 3 3 3 3 3 4 5 5 4 4 4 4 4 5 6 6 7 8 9 9 9 8 8 8 8 9 9 9 9 9 8 8 8 9 9 9 8 7
5 5 4 4 4 4 4 4 4 4 5 5 5 5 5 5 5 5 5 5 5 6 6 5 4 5 5 5 5 5 5 5 5 5 6 4 4 4 3 3 3 3 2 2 2 3 4 3 4 3 4 5 5 5 4 5 5 4 4 4 5 5 6 7 8 9 9 8 8 8 8 8 8 8 10 10 8 8 8 9 8 8 7 7 7
5 4 5 4 4 5 5 4 4 5 5 5 5 5 5 5 6 5 6 6 6 6 6 5 6 6 6 5 4 4 5 5 5 6 5 5 4 4 3 3 3 3 3 3 3 4 5 6 4 5 5 5 4 5 5 5 5 5 5 5 5 6 7 8 9 9 9 9 8 8 8 7 8 8 9 9 8 8 8 8 8 8 8 7 6
5 5 5 5 5 5 5 5 6 6 6 5 6 5 5 5 5 5 5 6 7 7 7 6 6 6 6 6 6 5 5 5 5 5 5 4 3 3 4 4 4 3 3 5 5 5 5 5 5 4 4 4 5 5 6 6 5 6 6 6 6 7 11 13 10 9 8 9 9 8 8 7 7 8 8 9 8 8 8 7 8 8 8 6 5
5 5 5 5 5 5 5 5 5 5 5 5 6 6 5 6 5 5 5 6 7 7 6 6 6 6 6 6 6 6 5 6 5 5 4 4 4 3 4 4 4 5 5 5 5 5 5 4 4 4 4 5 5 5 6 6 7 7 7 7 9 15 15 14 11 9 12 10 8 7 7 7 8 8 8 8 8 8 7 8 7 8 7 6 6
6 6 6 6 6 5 5 5 5 5 5 5 6 5 5 6 5 5 6 6 7 7 6 6 6 6 6 6 6 5 5 5 4 4 4 4 4 4 4 5 5 5 5 4 4 4 4 4 4 4 5 5 5 5 6 6 7 8 8 9 16 17 17 18 14 13 12 8 8 7 6 7 7 7 7 7 8 8 8 8 8 7 7 7 6
6 6 6 6 5 5 5 6 6 5 5 5 5 5 5 5 6 6 6 7 7 6 6 6 6 6 6 6 5 5 4 4 4 4 4 4 4 4 4 4 4 4 4 4 4 4 4 4 4 4 4 5 5 5 6 7 8 9 12 15 16 18 18 17 13 15 18 13 8 7 6 7 7 8 8 8 8 8 8 8 7 7 7 6 6
Wind_Direction
123 130 148 168 165 179 183 182 172 139 134 143 164 177 164 156 128 99 93 64 46 27 4 262 211 180 153 176 179 158 76 35 73 125 135 129 356 95 264 9 330 324 88 80 4 113 121 123 129 108 110 94 94 94 86 90 84 78 84 86 78 60 96 103 104 109 76 332 333 357 347 1 41 14 23 14 14 21 32 41 34 34 31 22 16
124 126 158 145 169 175 167 148 142 136 138 142 151 141 99 80 86 53 70 79 89 49 8 353 356 360 348 338 346 18 34 32 14 8 343 286 265 223 202 187 203 293 342 253 305 346 113 126 130 103 82 107 111 102 112 103 95 84 58 88 87 75 125 116 105 123 131 307 23 354 8 359 67 18 27 14 13 10 23 22 33 35 29 17 16
128 117 130 147 149 150 143 152 149 144 133 133 115 94 88 84 85 100 111 116 117 105 95 79 332 339 347 22 69 73 80 83 82 14 321 305 288 267 217 198 197 193 214 237 236 204 126 151 175 144 135 100 102 116 121 110 103 99 102 98 102 92 69 109 125 113 97 119 194 63 26 9 66 31 17 20 16 27 28 21 28 25 23 13 13
121 110 109 112 135 136 143 151 146 148 138 120 112 131 132 130 138 145 153 141 136 139 167 198 192 207 224 115 87 111 148 167 180 190 172 282 287 279 262 243 230 209 210 218 201 194 194 186 223 194 147 121 133 124 118 119 118 120 119 120 119 123 111 99 105 133 160 98 18 88 20 56 62 52 15 26 26 34 31 10 40 42 22 14 5
108 110 120 120 118 120 132 146 142 138 125 125 124 117 118 130 142 153 157 169 127 118 342 6 323 318 290 213 173 168 198 265 323 15 180 212 231 266 266 238 225 220 215 211 207 202 200 208 202 188 171 138 161 143 150 137 140 132 133 146 134 142 108 105 105 107 122 108 133 203 312 176 70 116 31 18 16 33 21 10 52 38 24 13 351
117 119 123 120 126 129 139 141 145 139 129 115 114 122 124 121 124 137 146 123 102 128 187 221 223 232 230 231 234 199 195 191 213 246 269 265 222 232 248 245 239 226 222 215 206 202 209 215 204 181 182 178 185 176 168 158 152 148 148 157 149 120 118 102 108 101 102 116 127 102 355 56 2 8 18 17 10 11 13 13 186 38 8 6 19
132 123 119 120 125 133 135 138 138 133 119 120 128 140 133 139 151 153 152 130 129 185 163 147 133 258 251 229 232 234 229 217 212 219 230 264 279 257 247 248 247 234 227 220 218 216 224 220 204 191 195 196 184 185 179 177 174 174 164 159 150 139 147 169 129 116 126 133 109 100 132 118 32 8 359 5 35 59 5 342 360 118 46 4 343
116 111 117 112 123 144 146 145 123 108 111 117 153 168 152 169 153 153 156 137 138 168 189 177 192 207 242 239 246 241 243 236 232 248 245 238 248 260 260 252 247 244 240 232 222 222 220 221 216 206 207 205 197 191 182 179 168 151 166 139 147 115 126 132 83 83 110 109 107 143 49 68 356 309 301 351 55 73 43 15 345 341 345 359 348
117 118 118 131 155 151 147 113 106 112 108 127 157 189 198 176 131 135 140 136 156 209 180 143 167 203 234 247 252 239 230 245 249 243 253 263 254 254 243 235 236 241 241 244 244 240 233 226 224 220 218 219 210 196 193 174 164 167 169 156 138 131 146 109 114 107 69 79 94 70 88 33 8 355 2 25 30 9 340 4 326 325 319 323 330
123 126 133 147 154 152 146 135 132 122 128 149 173 185 200 173 147 136 135 153 166 202 236 151 168 202 231 238 227 225 229 233 237 237 230 232 238 236 234 234 233 235 242 246 243 231 233 230 235 229 228 231 226 215 202 189 185 169 167 165 154 140 136 128 124 135 132 134 146 102 1 351 351 6 4 13 313 315 345 1 345 330 318 295 266
102 119 143 164 162 156 153 148 131 129 130 135 176 156 124 72 54 62 87 84 107 54 27 329 284 234 235 249 260 255 260 262 274 274 271 263 253 242 238 247 233 237 243 249 260 260 248 237 245 242 240 240 239 236 214 196 177 170 159 158 159 150 141 131 176 163 150 141 129 115 107 325 329 208 254 326 44 350 349 343 325 335 354 354 329
88 73 76 95 127 155 169 136 131 135 140 149 150 144 131 128 120 73 42 46 66 42 305 262 269 278 298 315 298 278 285 340 334 310 292 275 244 251 250 253 248 242 241 243 252 261 267 265 252 247 242 239 219 196 188 190 181 159 140 117 92 71 87 152 150 122 157 146 155 162 146 245 252 187 194 338 336 331 332 329 332 339 329 323 301
89 78 76 100 118 136 134 124 106 89 102 116 115 107 109 101 103 123 179 148 127 159 199 254 309 359 21 355 329 334 319 356 360 350 331 320 249 224 241 239 247 248 240 246 257 264 269 271 271 253 253 237 209 167 146 140 113 110 102 93 81 87 87 81 93 151 160 144 147 165 192 171 218 219 171 161 150 321 320 321 316 297 282 282 284
74 76 66 56 59 80 106 111 104 103 96 88 99 120 127 144 157 153 129 114 113 90 64 48 10 8 339 249 252 283 312 7 351 337 322 310 299 245 246 239 239 252 257 258 261 263 258 255 262 266 240 182 150 152 145 137 130 107 84 68 78 76 77 87 93 97 109 141 149 168 195 161 193 171 180 145 66 304 305 295 298 295 286 282 302
49 60 70 52 54 58 73 83 86 76 75 82 83 76 87 90 85 86 106 128 138 147 153 148 153 150 142 202 308 9 18 352 340 324 314 310 312 236 263 251 255 275 304 287 268 262 256 244 235 234 191 157 154 155 142 134 118 103 95 90 82 73 69 80 106 119 102 106 125 126 141 173 165 172 168 179 228 251 265 277 287 284 288 297 281
34 36 57 62 77 88 98 90 84 81 80 75 74 69 60 59 78 44 50 45 59 89 69 80 95 71 36 40 49 6 339 347 344 333 331 355 54 59 38 17 68 49 31 17 5 346 315 258 174 108 89 87 113 137 133 127 116 114 111 114 102 86 64 17 41 78 84 88 101 119 143 165 168 179 201 203 232 250 272 284 286 272 290 297 293
16 5 23 39 85 110 108 106 105 103 104 95 101 116 112 92 92 98 82 65 77 65 65 65 46 76 97 122 135 183 275 317 323 316 324 39 82 77 86 69 59 54 34 14 9 16 26 56 77 85 70 58 77 111 120 117 107 113 117 110 106 108 112 76 55 63 70 74 76 82 96 125 146 251 260 253 235 215 192 256 269 247 293 295 286
36 336 37 317 32 51 109 119 124 130 118 118 124 132 127 122 143 157 134 136 105 105 113 77 44 34 43 32 354 116 335 288 321 305 280 171 107 103 96 90 68 60 49 31 23 27 46 68 83 83 85 70 90 96 102 105 102 106 113 118 115 112 129 106 85 57 45 80 86 38 205 169 211 254 253 252 244 227 208 256 271 253 275 267 288
184 232 189 231 204 190 160 132 132 130 127 149 142 134 134 140 148 129 122 116 132 149 141 114 77 24 2 330 334 26 316 318 337 323 160 130 112 107 102 94 82 54 71 59 40 48 46 48 63 80 85 91 81 77 76 84 88 99 115 109 110 96 76 72 92 106 55 65 24 17 47 293 282 295 287 285 273 248 219 243 255 248 271 276 279
211 211 243 242 232 224 191 149 153 146 150 154 149 137 146 128 135 122 91 89 124 124 121 106 109 46 341 1 349 352 348 326 326 318 153 131 129 123 122 113 115 104 83 86 77 57 51 57 57 71 77 72 65 60 53 59 82 67 65 76 100 85 115 118 136 133 100 105 256 240 280 306 320 323 310 307 300 284 264 239 234 242 259 267 265
272 244 206 211 246 231 211 172 163 198 186 169 157 137 138 134 128 117 124 118 116 116 114 127 112 65 17 11 8 357 343 321 317 309 182 148 143 133 128 122 133 123 115 97 92 94 78 65 57 61 71 71 71 69 67 63 68 70 64 74 74 122 134 68 79 66 47 19 351 339 330 336 328 320 306 301 291 289 285 277 259 241 249 262 265
261 269 255 214 218 236 218 211 192 180 178 140 136 155 187 145 143 138 139 140 129 124 123 110 109 73 16 18 20 350 341 359 320 318 256 164 156 142 134 154 149 126 105 90 104 109 120 122 109 81 79 78 76 73 67 62 56 61 62 80 90 78 62 56 66 40 18 11 344 333 324 316 315 309 300 293 289 285 282 277 272 261 244 244 258
263 248 237 233 224 219 226 212 199 185 176 175 154 161 164 140 131 134 130 123 124 134 135 134 127 117 82 10 4 358 353 343 23 14 341 227 166 145 135 137 147 130 129 131 132 119 93 91 86 78 75 71 67 65 61 60 60 54 55 53 48 53 52 43 38 28 360 339 337 319 311 304 301 300 296 292 283 276 275 271 269 269 264 255 249
265 246 233 225 219 215 213 212 217 210 189 170 160 147 164 160 148 152 145 138 142 145 171 164 156 183 200 213 152 21 5 2 15 51 58 66 85 105 109 109 114 112 117 125 127 117 110 94 89 86 84 80 78 75 71 68 68 61 59 60 64 62 64 43 32 16 354 344 333 317 304 295 287 284 285 287 291 290 285 280 279 273 271 268 263
229 238 249 235 217 213 197 188 189 186 190 165 152 156 153 158 141 160 134 140 152 170 192 185 192 210 211 220 211 56 8 27 29 58 86 90 96 102 106 111 116 116 103 102 98 104 108 101 95 92 89 84 79 75 67 61 60 60 58 54 52 39 36 24 8 358 348 332 313 300 291 285 283 283 285 291 290 286 280 278 277 285 288 284 280
282 246 235 245 261 229 178 194 187 188 178 183 174 171 166 178 166 165 166 171 176 178 184 188 210 206 222 222 192 190 91 83 74 68 87 102 96 99 103 101 94 89 96 99 104 101 100 100 97 91 83 80 72 60 60 54 54 50 46 43 40 34 21 16 357 353 330 320 313 304 300 297 292 292 288 288 296 298 302 303 308 305 303 301 301
290 290 278 260 209 179 194 189 205 211 183 174 160 158 164 168 161 165 177 176 186 194 177 190 201 207 224 224 196 175 158 141 135 128 136 118 118 115 103 95 96 94 87 88 88 89 81 82 85 86 85 77 76 71 63 41 42 30 23 22 27 17 15 11 355 332 325 320 314 309 306 302 292 288 302 309 306 304 307 307 306 305 305 303 301
266 269 270 262 227 196 198 196 189 195 210 176 183 190 169 142 172 185 182 184 182 205 200 201 204 206 221 203 170 173 182 184 179 166 162 132 118 106 97 111 113 123 109 99 99 93 96 86 71 43 54 46 46 32 30 38 44 26 10 7 1 355 351 344 325 309 294 314 312 310 309 311 310 310 309 307 303 301 305 306 307 304 302 302 299
270 262 258 251 250 231 207 195 199 197 200 241 253 207 201 190 208 248 241 189 190 191 199 214 214 214 201 178 174 191 194 207 215 189 169 160 149 141 141 138 139 121 130 129 110 88 80 71 63 57 49 60 47 42 21 17 5 4 360 347 343 334 334 332 335 332 334 329 323 319 315 314 309 308 307 304 302 301 298 289 285 285 292 286 282
273 266 256 234 236 220 219 198 176 167 173 222 294 301 226 202 200 215 275 265 223 236 193 210 215 197 194 210 187 177 196 215 161 166 166 157 143 136 137 138 138 132 130 116 106 94 81 85 75 79 67 63 54 37 13 356 344 341 333 320 310 311 302 293 284 286 300 307 312 313 311 310 307 307 307 304 303 301 295 280 286 284 282 277 276
254 253 251 240 226 219 217 224 275 116 232 191 203 252 294 317 236 237 240 271 269 262 246 240 229 197 191 209 225 247 93 130 154 161 153 144 138 134 134 133 129 130 131 111 65 96 109 94 85 74 71 73 63 17 340 334 321 312 308 308 298 288 284 280 286 299 308 309 307 300 300 302 304 304 300 302 300 299 297 289 282 278 276 277 277
243 240 231 242 275 226 180 182 166 212 263 215 226 235 247 269 296 286 301 317 293 273 254 246 241 225 211 204 163 157 152 155 152 148 143 137 134 131 129 129 131 128 124 106 95 91 104 109 99 88 86 63 5 301 295 308 308 303 300 306 305 296 296 309 318 317 314 314 313 311 311 312 309 306 301 297 294 292 293 295 293 288 284 282 279
235 243 227 214 186 178 161 208 245 220 242 248 256 233 239 248 262 281 302 332 357 347 319 271 242 226 210 195 184 172 164 154 144 136 135 133 127 127 124 122 125 122 96 80 111 111 106 113 115 118 109 114 265 294 306 305 301 297 297 303 310 311 305 294 291 307 312 312 312 309 307 304 300 297 293 293 295 294 295 293 292 287 284 283 283
241 221 200 191 182 212 185 187 212 237 234 229 230 224 227 225 235 244 262 269 304 350 16 360 262 204 198 188 179 155 146 143 138 137 136 131 128 124 117 106 86 75 109 125 110 128 125 114 116 131 141 215 258 296 311 310 307 304 310 308 309 310 309 309 317 322 323 314 303 296 295 296 297 299 298 296 291 290 290 289 290 289 286 283 282
163 143 133 148 174 206 205 208 216 232 237 237 229 232 232 221 223 229 227 229 226 223 323 350 3 145 157 157 150 145 143 140 140 139 135 131 127 125 115 105 97 80 70 68 103 118 129 127 130 151 191 322 308 282 304 308 318 324 325 322 321 319 318 328 327 319 314 311 304 302 303 303 304 303 300 295 296 295 293 290 287 282 282 284 282
127 115 100 122 162 195 212 213 203 206 227 234 231 230 225 219 215 219 217 216 180 148 88 29 36 53 103 120 134 133 130 128 126 124 127 129 133 122 102 103 102 98 103 98 116 116 111 126 130 148 167 288 299 316 320 320 318 326 331 327 318 320 322 321 318 315 309 308 305 305 309 313 310 303 295 290 288 288 288 288 287 287 283 282 281
137 124 129 143 149 151 185 223 232 232 238 239 232 227 223 218 209 202 194 175 157 142 128 131 110 88 73 78 106 116 118 123 123 124 128 125 100 91 121 130 125 117 120 122 115 113 120 129 120 83 355 324 326 319 315 323 337 338 326 322 319 323 319 315 307 310 315 318 314 314 314 311 307 301 299 295 292 288 286 286 285 282 281 280 280
154 150 151 154 152 161 164 217 251 266 264 251 235 218 211 200 186 180 170 158 146 145 148 150 147 135 126 118 113 117 111 102 97 91 88 79 77 97 104 114 123 128 127 116 122 131 124 110 99 77 342 340 332 319 330 348 348 334 325 323 324 316 309 304 301 305 308 315 316 316 314 311 308 305 301 296 294 293 288 286 285 284 281 278 277
130 142 152 161 169 170 183 263 265 254 255 261 216 199 185 169 161 150 142 133 131 129 136 138 141 125 118 123 124 126 112 115 120 125 97 72 72 91 109 109 107 103 111 121 124 117 123 108 135 69 26 344 313 329 1 345 335 331 331 333 327 320 318 316 314 312 313 314 313 310 309 307 307 305 301 299 294 291 290 288 287 283 281 283 280
140 141 161 154 130 181 181 232 260 269 253 159 120 150 144 144 141 136 128 124 122 119 113 112 100 88 103 129 140 138 117 120 120 123 115 94 99 95 108 111 113 123 129 130 125 126 110 108 89 36 358 329 338 1 355 334 337 330 333 328 323 317 314 314 310 312 313 315 313 311 310 306 303 300 297 292 295 296 295 294 291 287 285 284 282
126 129 128 125 107 26 21 21 24 17 15 56 72 77 87 95 104 109 108 109 111 108 101 88 79 69 69 91 91 105 117 121 117 109 113 120 115 102 100 105 119 117 119 124 129 116 123 108 67 12 320 354 8 7 341 345 340 339 333 323 317 314 312 310 309 309 313 314 312 310 307 306 305 305 303 303 301 300 293 288 287 286 288 285 284
121 118 111 80 44 22 342 14 56 49 39 44 63 75 80 79 80 85 91 98 101 102 96 88 80 59 87 101 105 105 100 96 103 105 91 86 92 90 99 100 90 109 120 126 138 145 139 97 95 326 12 9 11 345 349 358 349 334 325 321 321 317 314 315 317 316 315 313 310 307 307 306 303 302 302 303 307 305 303 301 299 299 297 294 289
124 126 129 111 88 22 16 13 83 81 66 62 67 67 71 78 81 83 87 86 90 96 100 98 95 86 76 81 95 93 93 92 104 98 95 90 90 97 100 101 100 99 99 112 143 148 144 119 90 36 17 12 342 340 357 345 336 329 325 324 319 316 315 317 319 320 322 317 311 306 305 303 304 307 308 311 310 309 307 307 306 302 301 301 301
103 95 82 77 71 63 35 70 90 89 75 68 67 68 73 71 71 78 85 88 92 96 102 109 111 93 87 78 81 86 87 88 88 91 97 97 98 101 94 85 84 75 66 65 75 153 139 87 55 24 33 11 9 19 15 354 349 342 333 327 322 324 321 323 323 323 322 317 308 305 304 305 306 307 309 310 314 312 310 311 311 311 309 306 303
94 83 76 64 57 61 52 53 77 88 92 84 73 70 72 84 90 90 91 94 91 90 91 94 92 100 97 78 76 86 90 92 95 97 90 95 96 88 81 71 76 87 89 70 65 93 70 55 47 34 17 17 18 16 9 5 1 350 341 328 327 326 324 322 319 315 311 306 302 301 302 306 308 308 310 313 313 312 312 313 313 311 313 314 317
91 93 87 79 64 56 60 59 61 69 74 82 89 80 69 70 75 79 84 81 87 96 97 83 82 82 89 85 90 91 95 96 91 89 91 86 87 76 77 88 86 85 80 70 59 60 56 53 44 42 26 15 10 9 5 360 358 351 341 334 323 316 316 313 313 311 306 302 300 301 301 302 303 305 309 313 314 313 312 311 313 316 314 312 314
86 84 88 83 78 66 61 62 68 72 78 80 77 77 85 90 83 78 75 80 84 86 86 90 90 93 92 90 89 92 92 92 94 88 85 89 89 88 88 86 85 73 63 60 56 55 52 46 44 41 31 18 11 7 1 355 346 342 338 333 330 325 326 323 316 307 302 300 299 298 298 299 302 307 312 317 317 317 317 316 318 315 317 319 319
79 74 71 72 76 75 68 70 75 77 77 77 81 85 79 72 78 75 73 80 85 89 91 88 88 91 92 92 91 91 85 86 84 86 84 80 82 81 79 73 70 67 67 61 52 52 51 49 44 36 30 25 18 11 1 350 345 342 338 334 332 333 326 326 317 311 305 306 299 295 296 297 300 309 316 318 318 320 319 321 322 322 323 321 322
74 78 77 71 67 67 68 74 73 74 73 80 80 71 66 69 64 65 72 82 85 85 88 91 89 91 91 92 93 91 83 81 82 81 83 77 73 69 74 70 65 60 62 59 52 49 46 44 37 38 33 26 18 11 2 351 347 344 339 336 332 331 329 329 325 317 314 306 299 295 293 300 309 315 319 320 321 322 322 323 325 324 323 325 326
70 70 74 74 76 72 67 67 67 68 66 70 77 78 74 74 70 73 78 80 81 82 82 86 89 94 99 99 94 87 79 83 78 77 72 75 70 71 71 69 65 60 59 56 47 46 43 40 36 35 31 21 16 16 4 355 351 346 342 337 335 336 335 335 330 329 330 322 312 299 298 308 315 320 327 328 326 326 331 334 331 330 331 333 336
71 73 73 69 68 68 73 78 74 66 63 66 66 72 74 72 74 76 74 76 80 81 82 85 88 89 90 94 96 93 89 93 94 92 85 76 74 67 64 62 57 53 48 46 42 35 35 34 32 28 26 19 18 13 6 0 356 347 341 340 343 342 342 342 337 332 332 329 313 306 315 319 320 326 334 338 334 335 335 333 338 339 339 339 338